Regional Weather Roundup
Issued by NWS

Home | Current Version | Previous Version | Graphics & Text | Print | Product List | Glossary On
Versions: 1 2 3 4 5 6 7 8 9 10 11 12 13 14 15 16 17 18 19 20 21 22 23 24 25 26 27 28 29 30 31 32 33 34 35 36 37 38 39 40 41 42 43 44 45 46 47 48 49 50
000
ASUS43 KMKX 210821
RWRWI

WISCONSIN REGIONAL WEATHER ROUNDUP
NATIONAL WEATHER SERVICE MILWAUKEE/SULLIVAN WI
300 AM CDT MON AUG 21 2017

NOTE: "FAIR" INDICATES FEW OR NO CLOUDS BELOW 12,000 FEET WITH NO
SIGNIFICANT WEATHER AND/OR OBSTRUCTIONS TO VISIBILITY.

WIZ001-002-006>008-014>016-023>028-210900-
NORTHWEST WISCONSIN

CITY           SKY/WX    TMP DP  RH WIND       PRES   REMARKS
SUPERIOR ARPT    N/A     51  51 100 S5        30.02F FOG
ASHLAND        CLEAR     56  54  93 W5        30.03F
HAYWARD        FOG       52  50  93 CALM      30.03S VSB 3/4
SIREN          CLEAR     54  53  97 CALM      30.03F FOG
CUMBERLAND     CLEAR     59  54  82 CALM      30.03R
RICE LAKE      MOCLDY    62  58  89 CALM      30.05R
CHETEK         CLOUDY    66  60  81 CALM      30.04R
LADYSMITH      CLOUDY    65  61  86 N3        30.04F
EAU CLAIRE     MOCLDY    67  64  90 N7        30.01R
MENOMONIE      CLOUDY    67  65  95 CALM      30.03R
NEW RICHMOND   PTCLDY    61  60  98 CALM      30.04R
OSCEOLA        PTCLDY    56  56 100 S3        30.05R
$$

WIZ003>005-009-010-017-018-210900-
NORTH CENTRAL WISCONSIN

CITY           SKY/WX    TMP DP  RH WIND       PRES   REMARKS
MANITOWISH WTR FOG       56  56 100 CALM      30.04F VSB 1/4
ARBOR VITAE    PTCLDY    62  60  93 CALM      30.03F
WOODRUFF       PTCLDY    62  60  93 CALM      30.03F
RHINELANDER    CLOUDY    66  64  93 CALM      30.04F
EAGLE RIVER    PTCLDY    63  60  91 N3        30.03F
LAND O LAKES   MOCLDY    63  59  87 CALM      30.06F
PHILLIPS       MOCLDY    63  62  94 CALM      30.02F
TOMAHAWK         N/A     64  62  92 CALM      30.03F
MEDFORD          N/A     62  61  98 CALM      30.02S FOG
MERRILL        FOG       61  61 100 N3        30.02F VSB 3/4
$$

WIZ029-030-035-036-043>047-210900-
CENTRAL WISCONSIN

CITY           SKY/WX    TMP DP  RH WIND       PRES   REMARKS
WAUSAU         CLEAR     66  66 100 CALM      30.00F
MOSINEE        CLEAR     63  63 100 S3        30.02F FOG
MARSHFIELD     CLEAR     63  61  93 SW5       30.02S
STEVENS POINT  CLEAR     62  62 100 CALM      30.03R FOG
WAUPACA        CLEAR     65  65  97 CALM      30.01F FOG
WAUTOMA        PTCLDY    61  61 100 CALM      30.03S FOG
WISC RAPIDS    CLEAR     64  64 100 SW6       30.04R FOG
CAMP DOUGLAS   CLOUDY    63  63 100 CALM      30.02S
$$

WIZ011>013-019>022-031-037>040-048>050-210900-
NORTHEAST WISCONSIN

CITY           SKY/WX    TMP DP  RH WIND       PRES   REMARKS
ANTIGO         CLEAR     61  61 100 CALM      30.02F
SHAWANO        CLEAR     69  66  92 CALM      29.99F
OCONTO         PTCLDY    65  65  98 CALM      29.99F
STURGEON BAY   CLOUDY    70  67  90 CALM      30.00F
GREEN BAY      CLEAR     65  65 100 NW5       30.00F FOG
MANITOWOC      FOG       66  64  94 CALM      30.00F VSB 1/4
APPLETON       CLEAR     64  63  94 W6        30.00S
CLINTONVILLE   CLEAR     63  63 100 SE3       30.00F FOG
OSHKOSH        CLEAR     63  62  97 S5        30.00F
$$

WIZ032>034-041-042-053>061-210900-
SOUTHWEST WISCONSIN

CITY           SKY/WX    TMP DP  RH WIND       PRES   REMARKS
LA CROSSE      CLOUDY    71  67  87 E5        30.00S
SPARTA         PTCLDY    60  60 100 CALM      30.03S
VIROQUA        CLOUDY    65  64  97 CALM      30.03F
BOSCOBEL       FOG       62  61  96 CALM      30.02S VSB 1/4
PRAIRIE DU CHI CLOUDY    63  61  93 CALM      30.01F
PLATTEVILLE    CLOUDY    65  65 100 E3        30.03S
$$

WIZ056-057-062-063-064-067-068-210900-
SOUTH CENTRAL WISCONSIN

CITY           SKY/WX    TMP DP  RH WIND       PRES   REMARKS
REEDSBURG      CLEAR     63  63 100 CALM      30.03S FOG
BARABOO/DELLS  CLEAR     63  61  94 CALM      30.04R
LONE ROCK      FOG       63  63 100 CALM      30.02S VSB<1/4
MINERAL POINT  FOG       63  63 100 CALM      30.04S VSB 1
MADISON        CLEAR     64  64 100 CALM      30.03R FOG
MIDDLETON      CLEAR     62  62 100 CALM      30.05R
WATERTOWN      CLEAR     64  64 100 CALM      30.02R FOG
MONROE         CLOUDY    68  64  88 E3        30.05R
JANESVILLE     FOG       66  66 100 CALM      30.02S VSB 1/2
$$

WIZ051-052-058>065-066-070>072-210900-
SOUTHEAST WISCONSIN

CITY           SKY/WX    TMP DP  RH WIND       PRES   REMARKS
MILWAUKEE      PTCLDY    70  66  87 CALM      30.01F
WAUKESHA       CLEAR     63  63 100 CALM      30.04S FOG
MILWAUKEE/TIMM CLEAR     68  63  83 CALM      30.03S
RACINE         CLEAR     70  68  93 CALM      30.04F
KENOSHA        CLEAR     68  66  93 E3        30.03F
FOND DU LAC    CLEAR     65  62  90 W3        30.03R
SHEBOYGAN      CLEAR     64  64 100 S3        29.99F
WEST BEND      CLEAR     61  61 100 CALM      30.03R FOG
JUNEAU           N/A     65  64  99 CALM      30.04R FOG
$$

LSZ147-162-210900-
LAKE SUPERIOR

STATION/POSITION TIME  TEMP    WIND        PRES    WAVE
                       AIR SEA DIR/SP/G            HT/PER
                 (UTC) (F)     (DEG/KT/KT) (MB)    (FT/S)
W MID LAKE BUOY  0750   62 60  270/  8/ 10 1015.7R   1/ 3
DEVILS ISLAND    0800   64     220/  8/  9 1016.6S
SAXON HARBOR     0740   60     200/  4/  6 1016.3S
$$

LMZ867-665-643>646-210900-
LAKE MICHIGAN

STATION/POSITION TIME  TEMP    WIND        PRES    WAVE
                       AIR SEA DIR/SP/G            HT/PER
                 (UTC) (F)     (DEG/KT/KT) (MB)    (FT/S)
S GREEN BAY BUOY 0800   72 71  220/  4/  6 1015.5
N MID LAKE BUOY  0750   69 67  230/  6/  6 1016.2F   3/ 5
NORTHPORT PIER   0740   71      CALM  /  3 1015.6S
KEWAUNEE LAKESHO 0754   68     210/  2/  2 1015.0F
SHEBOYGAN LAKESH 0800   69     170/  7/  7 1015.1F
PORT WASHINGTON  0740   69     180/  2/  4 1016.9F
ATWATER BUOY     0709   71 70  160/  4/  6 1016.6F
MILWAUKEE LAKESH 0800   71     260/  1/  1   N/A
S MID LAKE BUOY  0750   74 72  130/  8/ 10 1016.8F   0
KENOSHA   LAKESH 0800   73     160/  3/  4 1016.6
$$

TC  - TEMPERATURE IN CELSIUS
VSB - VISIBILITY IN STATUTE MILES
WCI - WIND CHILL INDEX
HX  - HEAT INDEX





USA.gov is the U.S. government's official web portal to all federal, state and local government web resources and services.